sat.trackr.live / text

‹ back to catalog

STARLINK-35514

NORAD 66535 · 2025-265V

PAYLOAD ACTIVE UNKNOWN

§ Identity

Operator
Country
US
Launch date
2025-11-19
Launch site
AFETR
Launch vehicle
Mass (kg)
RCS (m²)

Purposes: comms

External: N2YO · Heavens-Above · Gunter

§ Orbital elements

Epoch: 2026-09-20T01:02:15.586944Z

Period
94.27 min
Inclination
42.9995°
Eccentricity
0.0000854
Mean motion
15.27587078 rev/d
Perigee alt
482.4 km
Apogee alt
483.6 km
Semi-major
6,861.2 km
B*
3.6925e-4
RAAN
260.6434°
Arg perigee
272.9796°
Mean anomaly
87.0958°
Rev number
4,683

§ Raw data

STARLINK-355141 66535U 25265V   26263.04323596  .00009915  00000+0  36925-3 0  99972 66535  42.9995 260.6434 0000854 272.9796  87.0958 15.27587078 46837

JSON: /api/v1/satellites/66535 · /tle

For live sub-satellite position, see the globe view (requires WebGL).

§ Visibility from observer

Set your observer location to see the next 7 days of passes ≥ 10°. The values pass through the URL so the page stays shareable.

No JS? Fill the form by hand. The geolocation button needs JavaScript.